GFSMW_con_mucape_000.txt.gz
CAPE
905 1102 1374 1495 1585 1791 2214 2531 2404 2499 2770 2717 1700 1770 1565 1692 2022 1698 2403 2264 2110 2002 1944 1498 1625 1543 1471 929 599 316 201 15 78 14 26 188 168 113 34 5 0 0 1
882 1244 1506 1465 1519 1897 2353 2709 2797 2764 2850 2203 2455 2011 2302 1637 1853 2000 2133 2225 2172 2225 1957 1896 1695 1598 507 746 340 213 46 23 48 92 19 25 220 190 48 2 0 0 0
1003 1109 1289 1478 1509 1799 2391 2711 3051 3125 3074 2937 2392 2563 2432 2432 2066 2162 2422 2735 2589 2518 2404 2224 1528 1357 371 3 156 126 31 14 338 348 61 19 24 22 83 89 0 0 0
1145 1134 1116 1339 1441 1650 2042 2751 3175 3423 3242 3210 2972 3586 2291 1787 1374 1730 1392 2066 2650 2451 2323 2147 1652 429 1 60 119 26 55 193 27 27 48 217 283 39 38 50 16 0 0
917 1095 1105 1068 1384 1511 1821 2351 3201 3734 3739 3377 3616 3150 3030 1792 1436 1512 1999 2359 2313 2490 1703 2200 875 346 126 314 151 61 140 62 28 20 37 68 22 12 9 11 21 21 15
429 785 935 975 1190 1371 1620 1952 3177 4089 3741 3649 3587 3540 2895 2635 1537 2020 1643 1139 1138 1795 1916 2061 936 294 48 281 172 34 99 86 61 65 134 23 19 25 15 10 10 15 14
399 540 828 969 1161 1369 1554 1877 2763 3653 3554 3555 3414 3484 3487 3195 2942 2632 1877 1083 763 807 1413 2095 1016 327 414 216 40 62 22 65 45 120 48 49 51 56 45 41 35 40 44
377 468 697 911 1221 1316 1583 1885 2503 3566 3371 3320 3724 4274 4043 3270 3059 2946 1892 1295 795 386 610 1821 857 436 298 231 33 2 10 29 36 58 153 58 63 58 67 55 74 55 42
576 359 633 864 1136 1381 1895 2553 3278 3059 3142 3067 3414 3770 3982 3634 2993 2841 2783 1785 1467 432 1064 1139 729 271 366 93 45 2 9 8 12 12 67 156 43 52 70 98 106 68 28
662 418 549 774 1043 1312 1606 2027 2541 3149 2886 2865 3048 3152 3331 3535 3331 3158 3231 2256 1888 1403 918 741 323 286 244 94 143 25 11 10 0 0 7 73 50 77 94 95 96 63 30
762 705 518 618 1031 1135 1396 1873 2296 2623 2859 2836 3425 3246 2941 3050 3370 3304 3428 3017 2210 1396 947 789 263 277 232 175 235 186 9 22 4 3 97 264 431 149 84 80 60 85 84
733 909 808 791 912 1251 1216 1541 1939 2382 2695 3304 3540 2997 2913 2889 3140 3390 3058 2317 1729 973 1038 534 397 305 173 196 298 185 10 24 0 47 235 396 271 356 447 185 254 204 181
767 1079 1076 1174 1208 1242 1862 1606 1984 2181 2361 2767 2902 2891 2837 2930 3067 2819 1762 1671 863 649 360 432 663 738 695 276 358 399 294 113 64 187 312 363 375 370 265 256 142 149 142
903 1224 1254 1514 1578 1941 2671 2728 2039 2192 2382 2483 2869 3034 2839 2752 2734 2004 651 492 240 325 199 430 274 272 535 553 512 410 401 188 136 321 439 586 599 559 438 263 450 380 242
967 1321 1500 2493 2777 2740 2870 2583 2360 2402 2460 2670 2713 3018 3048 2663 1991 1267 772 332 152 438 48 33 1 13 629 317 735 355 259 290 394 499 642 769 865 409 345 226 402 331 225
1103 1419 1670 1938 2312 2362 2491 2564 2594 2495 2641 2819 2892 3026 3421 2400 1477 1133 867 897 745 429 204 88 12 32 155 24 22 158 321 432 656 831 921 998 853 499 203 65 36 71 148
1135 1298 1635 1849 2315 2444 2685 2635 2645 2599 2681 2893 3024 3223 3019 1968 1297 1216 1243 1147 791 539 440 197 146 62 329 66 39 73 242 412 797 1065 950 722 439 328 575 242 78 36 0
1149 1281 1389 1751 2013 1974 2102 2180 2333 2541 2734 2980 2999 3004 2649 1727 1612 1240 1160 1089 1033 969 662 353 252 208 253 263 142 67 449 905 1094 824 526 548 401 403 624 504 271 220 221
1355 1392 1329 1605 1842 1565 1804 1903 2096 2360 2557 2764 2824 2508 2075 1479 1216 1242 1165 1169 935 783 654 657 555 552 646 443 183 109 474 859 891 593 320 245 416 253 96 93 154 268 238
984 1177 1086 1399 1362 1377 1506 1874 2058 2385 2624 2728 2656 2085 1747 1680 1534 1427 1312 1146 1160 826 516 598 664 330 1108 288 103 39 435 745 518 420 222 134 99 80 41 30 132 153 149
1164 1246 1161 1102 1333 1373 1626 1856 2080 2341 2514 2695 2494 1929 1905 2116 2034 1818 1347 1108 959 855 931 781 1051 796 369 732 149 23 549 224 217 349 845 330 63 33 12 0 14 47 0
896 820 1307 1703 1716 1748 2005 2283 2430 2671 2805 2776 2134 2073 1880 1787 1831 1631 1180 948 1081 1069 887 1445 1245 1022 1077 373 407 64 34 47 427 985 405 110 69 3 0 0 0 0 0
742 870 1433 1904 2162 2370 2381 2698 3294 3053 2911 2274 2245 1986 1810 1549 1528 1469 949 815 913 871 1157 1285 1039 848 1051 391 66 35 37 38 430 379 104 29 0 0 0 0 0 0 0
1141 1137 1312 1791 2409 2530 2653 3047 2568 2637 2721 2174 2059 1673 1902 1623 1477 1289 1140 1346 1327 1077 1644 1347 1028 430 876 570 74 27 44 35 24 24 0 0 0 0 0 0 0 1 1
1323 1247 1437 2031 2337 2405 2426 2318 2245 2191 2190 1987 1767 2172 1753 1296 1677 1298 1022 1289 579 400 602 474 253 660 1125 676 356 120 174 166 30 0 0 1 9 11 15 15 8 5 2
1802 1869 1966 2300 2401 2416 2400 2419 2133 2181 2108 2143 1717 1481 1526 1682 1513 830 634 391 224 24 17 82 179 213 167 155 46 26 11 1 0 0 0 3 4 3 7 8 2 0 0

GFSMW_con_mucape_003.txt.gz
CAPE
718 761 948 943 924 1107 1546 2155 2546 3669 2715 2157 2656 2243 1745 1969 1740 1475 2738 2717 2363 2288 2191 2070 2331 1508 1929 1386 394 146 27 27 62 0 51 134 103 63 22 4 0 0 0
489 780 998 1012 939 1304 1888 2892 3182 3927 3341 2353 2828 2629 2276 1535 1328 1319 2334 2256 2843 2684 2137 2846 1546 1430 1316 961 362 131 0 26 124 45 12 169 317 130 137 2 0 0 0
229 690 891 1063 1124 1521 2272 3227 4144 4352 3957 3775 2998 3071 2752 2206 2411 1826 2020 2385 2435 2398 2423 2204 2218 2001 907 0 281 46 9 5 290 299 43 28 379 233 317 84 0 0 0
287 450 931 1195 1160 1567 1901 3340 4289 4423 4328 4312 3119 3649 2151 1484 924 1173 1152 2037 2721 2501 2364 2383 1662 1586 152 465 38 16 26 73 29 32 20 58 123 87 112 350 42 0 0
388 452 794 1112 1136 1321 1658 2658 4348 4651 4548 4309 3888 2512 2768 1362 1312 885 3074 1768 3025 1927 1486 1417 1842 1045 68 171 93 2 84 158 12 7 19 117 11 0 0 12 47 32 33
375 750 677 918 1084 1248 1532 2456 4356 4776 4841 4501 4093 4090 3861 3036 1431 1550 1805 1602 1242 1772 1410 1122 1772 887 12 112 114 33 91 106 118 51 40 25 13 35 27 13 18 31 41
510 622 989 1003 1331 1802 2123 2640 4183 4853 4790 4193 4376 4227 3909 4169 3324 2723 2042 1594 680 861 2417 1622 2173 933 323 166 98 146 170 65 66 71 51 539 147 91 44 29 40 36 54
747 418 783 1276 1846 1819 2627 2859 3753 4680 4831 4568 4725 4750 4714 2860 2494 2989 2162 1363 964 741 1571 1665 1642 1141 273 287 234 27 1 306 33 30 641 47 46 112 72 147 273 83 73
679 609 494 861 1530 1655 2436 2919 3787 4357 4577 3631 4870 4859 4729 4552 2696 3704 3685 2136 2437 846 521 1240 1729 1320 579 426 399 39 510 35 9 192 738 211 21 31 42 52 174 121 62
657 662 485 625 1252 1245 1881 2780 3557 4249 4017 4185 4459 4275 4420 4611 4279 4372 4080 3445 2808 1857 1860 1267 1324 1102 937 982 915 506 528 343 16 4 541 688 52 6 32 57 72 42 27
491 786 567 551 845 918 1472 1980 2745 3842 4045 4184 4125 4303 3928 4058 4307 4090 3913 3729 2947 2798 2110 2168 1628 974 740 395 475 363 153 730 774 602 285 544 966 103 30 46 56 42 44
290 652 726 522 650 1262 1077 1293 1712 2069 3138 3961 4437 4421 4420 4100 3974 4155 4101 3984 3537 2901 2194 1975 1412 665 606 624 678 274 108 234 103 134 710 514 307 1357 1546 205 1282 690 436
119 589 660 892 888 1054 1305 1056 1623 1503 2028 3433 3525 4142 3912 4201 4041 4123 4123 3926 3778 2884 1813 1647 1344 794 656 764 684 682 458 188 142 130 657 611 1191 1394 700 1152 545 316 660
493 535 832 1285 1350 1521 1763 1695 1565 1289 1724 2408 2764 3939 4234 4034 3825 4120 3908 3373 3141 2492 1550 1372 951 803 602 477 445 494 390 588 506 460 746 822 1035 1205 1211 1163 1454 1188 759
369 968 1201 2285 2469 2198 2452 2362 1978 2363 2186 3204 3068 4028 4453 4081 3903 3977 3938 3153 2614 2010 1180 919 703 585 318 441 709 452 466 970 656 499 433 855 1071 677 640 1103 367 1135 677
15 937 1442 1821 3052 2824 3157 3048 2942 3022 3070 3899 3782 4362 4646 4294 3901 3835 3346 2302 2179 1548 999 458 424 427 101 0 43 465 239 863 911 738 756 1150 854 366 286 306 168 69 167
94 478 1373 1834 2511 2507 3440 3417 3635 3390 3787 4306 4408 4780 4821 4254 3346 3105 2694 2159 1819 1510 1108 515 522 337 487 33 34 107 256 487 830 1167 1019 1099 535 330 443 439 219 167 84
171 229 1086 1823 2730 2288 2308 2919 3085 4095 4370 4529 4541 4758 4618 3683 2685 2346 2057 1955 2025 1846 1286 668 862 560 517 357 288 174 216 328 571 885 1000 1246 1130 964 480 633 526 496 796
224 432 1392 1839 3427 3038 3569 3734 3439 3895 4181 4002 4551 4685 4048 3286 2498 1846 1785 2185 2130 2330 1209 811 775 757 673 464 177 178 434 612 999 1142 1050 1268 756 338 145 110 150 589 824
246 860 1648 2098 2744 3289 2763 3344 2911 3469 3936 4035 4265 4573 3732 2984 2198 1835 1891 2193 2286 1915 960 904 893 769 1178 348 79 80 316 285 409 1733 1379 245 114 147 103 144 227 425 533
1380 2020 2028 2883 3243 3132 2538 3197 3071 3062 3100 3221 3339 3536 2930 2608 1943 2056 2288 2019 1886 1455 857 718 1104 1509 1087 782 159 98 379 190 701 590 888 262 71 66 42 39 44 169 51
1600 1712 2228 2590 2520 2879 3082 3368 3566 3724 3908 3752 3447 2907 2458 2165 2157 2361 1828 1552 1575 1410 1335 1627 1471 1322 1180 423 216 60 53 134 672 473 423 969 319 57 63 1 0 0 0
1671 1537 1503 2454 2458 3096 3318 3693 4535 4370 4062 3919 3065 2549 2480 2395 2533 2292 2048 1733 1558 1211 1285 1354 1055 1029 1143 1714 363 283 362 51 72 487 105 109 93 36 0 0 0 0 0
1290 1339 1598 2156 2697 3180 2822 3591 3528 3599 3661 2900 2466 2360 2322 2212 2173 2145 1437 1145 885 1051 1250 1250 1432 1341 1661 773 443 215 150 29 21 15 94 56 3 0 0 0 0 0 1
1161 1419 1705 2136 2440 2832 3240 2973 3261 3388 2756 2429 2373 2740 2339 2127 2020 1391 1228 1622 1569 1407 1166 1133 1234 1311 650 834 508 115 188 260 136 113 129 19 35 25 46 34 36 33 25
1458 1773 1733 2224 2559 2762 2890 2829 2892 3005 3071 2670 2560 2299 2029 2250 1595 931 957 936 587 561 440 238 192 286 135 182 355 188 115 54 38 16 20 20 25 31 30 58 52 26 1

GFSMW_con_mucape_006.txt.gz
CAPE
480 676 744 844 924 1523 2131 2308 2432 3228 3537 3257 2400 2367 2110 2709 2337 2360 2182 2725 3116 2643 3012 2735 2202 1791 2602 874 1185 870 487 603 425 218 136 429 357 381 206 0 0 0 9
310 705 931 789 911 1381 1812 2696 2702 3498 3176 3090 2904 2670 2284 1942 2029 2310 2775 3096 2781 3468 2412 2629 2350 1865 1803 1803 1353 692 387 421 773 194 403 257 558 123 175 13 0 0 0
79 765 917 912 1044 1416 2089 2491 3095 3247 3180 3051 3039 3215 2761 2473 2362 2815 2778 3241 3310 3213 1726 2535 2687 2426 1634 1276 1400 839 358 291 1161 307 398 413 514 458 475 229 10 2 0
162 453 958 1203 1177 1422 1926 2789 3242 3436 3580 2927 3032 2715 2233 2400 2504 2879 2277 2936 3160 3074 3032 3101 2939 2629 1322 1729 1204 688 284 829 419 809 360 215 132 223 198 556 53 21 0
108 216 910 1131 1231 1467 2076 2571 3479 3627 3618 3560 3176 2982 2804 2107 2066 1694 3635 3220 3494 2942 2578 2841 2833 2224 1435 1645 765 617 416 839 564 412 611 831 479 146 54 87 73 83 48
319 373 773 1091 1319 1469 2169 2273 3739 3966 3886 3902 3299 3539 2497 2534 1952 2802 2927 2631 2498 2818 2939 2353 2445 2115 1156 1341 852 807 960 590 665 508 731 400 423 43 297 70 46 69 114
545 530 722 1134 1445 1606 1942 2512 3463 3935 4050 4091 3577 3423 3461 3116 3558 3879 2898 2550 1715 2095 2351 2594 2419 1682 1294 1423 1147 1131 1162 757 604 808 537 451 333 217 122 150 48 50 70
671 634 888 1056 1548 1595 2012 2438 3332 3806 4184 3958 3965 3713 3378 3041 3075 3519 2535 2563 1706 1884 1771 2166 2473 2308 1100 1049 1057 827 535 713 601 191 562 475 523 409 219 130 95 55 67
777 715 1010 1144 1578 1626 1945 2409 3423 3903 4210 4212 4173 4235 3723 3384 3006 3232 3227 2786 2354 2348 2193 1935 2350 1813 1382 1167 1344 404 571 608 993 847 669 470 145 311 334 199 271 47 57
852 923 834 1398 1569 1751 1851 2532 2946 3889 4278 4214 4215 4210 4212 3704 3381 3100 3417 2363 2513 2479 1646 2117 1674 1848 1118 1331 1217 596 852 674 558 434 614 592 325 472 340 52 243 64 95
685 700 968 1039 1662 1891 1912 2231 2631 3666 4130 4219 4151 4187 4142 4000 3651 4123 3839 2831 3090 2119 2152 1671 1845 1708 1300 1257 940 681 580 623 679 524 651 547 1003 606 410 658 314 152 199
185 609 1099 950 1348 1643 1753 2144 2602 3233 3768 3972 4103 4089 4113 4125 4006 3507 3875 3197 3542 2541 2003 2129 1907 1700 887 1112 800 509 159 734 684 842 890 675 468 1014 782 854 672 734 623
742 734 961 1079 1135 1298 1575 1932 2342 2758 3632 3793 3837 3778 3966 3989 3936 3804 3289 3560 3352 2835 2572 2076 1925 1306 768 933 670 573 569 700 523 530 712 720 824 1014 1003 740 810 553 419
1531 988 977 1324 1092 1310 1530 1780 2095 2361 3029 3398 3514 3637 3616 3690 3627 3727 3624 3445 3387 2987 2920 2175 1906 1245 751 683 624 682 686 660 621 918 933 1039 809 925 1047 760 924 933 625
1167 1395 1697 1867 1603 1677 1655 1628 1692 1851 2084 2980 3479 3617 3873 3699 3673 3651 3695 3545 3754 3581 3256 2284 1796 1178 617 560 698 656 665 784 868 672 999 965 1029 685 806 914 718 992 468
323 1473 1756 2678 3069 2035 1862 1623 1580 1666 1956 2497 2932 3372 3777 3991 3843 3676 3868 3780 3965 3474 3008 1934 1312 746 487 310 305 723 740 888 940 640 1000 1228 411 321 129 91 151 652 379
306 749 2044 2196 2485 2677 2102 1747 1701 1914 1966 2718 2983 3205 3856 4180 3919 3848 3902 4051 3750 3062 2374 1590 849 456 575 188 104 380 564 561 871 675 1049 678 538 507 792 341 173 142 93
157 251 24 2129 2803 2820 2269 2257 2127 2416 2374 3885 3379 3603 4259 4287 4050 3961 3915 3938 3077 2569 2257 1767 1264 624 560 148 222 126 129 406 851 710 830 307 827 1099 1218 729 825 302 245
698 388 54 662 2759 2845 2786 3152 2704 2547 3865 3544 4180 4254 4794 4511 4336 3990 3665 3252 2717 2977 2399 1889 1325 975 707 300 373 420 517 528 425 655 621 769 1314 1195 393 230 236 236 592
61 1062 1165 1337 3201 3335 2997 3180 3471 3238 3121 4110 4405 4825 4808 4412 3631 3225 2909 2739 2717 2333 2279 1480 1210 880 1226 825 699 503 300 321 556 741 905 444 523 783 223 143 385 656 617
578 952 2823 3010 3586 3637 3414 3398 3566 3765 3715 4535 4557 4951 4665 3946 3168 2861 2482 2523 2392 2648 1868 1577 1291 1069 1011 835 553 546 368 488 528 444 713 874 516 150 33 49 72 76 55
686 2009 4164 4416 4217 4052 4062 4215 4253 4459 4620 4556 4704 4758 3863 3434 2953 2278 2302 2334 2083 1660 1909 1272 1029 1827 1570 797 738 521 196 446 553 584 753 343 257 186 154 33 32 6 0
2249 2325 3604 4212 4361 4474 3991 4091 4425 4265 4164 4194 4476 3869 3394 2516 2251 2583 1902 1803 1970 1631 1433 1405 1843 1690 1467 866 633 503 207 83 98 455 354 217 45 51 101 87 1 0 0
2826 2777 2934 3252 3783 3856 4089 4332 4276 4228 4115 4068 3337 2786 2562 2882 2908 2419 2123 1851 1792 1691 1435 2028 1699 1795 1535 1088 578 484 311 314 261 107 79 62 14 40 9 0 0 0 0
2831 3295 3511 3829 4095 4517 4167 4229 4437 4300 3549 2942 2574 2253 2136 2235 2227 1838 1471 1323 959 876 1838 2014 1698 1447 1418 1208 898 669 466 227 40 52 64 74 25 25 6 12 23 12 25
2115 2509 3281 3441 3136 3485 3866 4068 4046 3478 2982 2551 2344 2456 1990 2306 2123 1401 1038 1028 979 948 836 639 744 630 557 656 619 170 81 138 169 152 545 338 226 164 58 35 30 41 55

GFSMW_con_mucape_009.txt.gz
CAPE
155 565 621 576 739 1311 1210 1105 1221 1663 1494 1458 1644 1626 1728 1690 1275 1114 1637 1295 1307 1418 1366 1310 1348 1466 1028 517 467 68 0 0 3 1 11 33 28 24 0 0 0 0 0
86 324 453 527 695 1044 1143 1080 864 2098 1669 1776 1675 1508 1614 1383 1367 1319 1235 1207 1789 1609 1432 1341 1321 1154 1135 547 268 13 0 0 0 0 0 23 67 40 3 9 0 0 0
112 187 267 385 451 795 1317 1247 1014 1626 2041 1976 1653 1780 1439 1485 1459 1502 1802 1863 1893 1747 1362 1455 1163 995 809 529 275 0 0 0 0 0 2 29 26 34 35 19 0 0 0
128 156 275 339 386 833 1048 1305 1419 1729 1827 1945 1770 1839 1557 1281 1288 1464 1296 1633 2145 2001 1193 1216 1385 1041 441 175 28 48 1 39 0 88 0 0 9 31 48 27 10 0 0
65 172 385 333 434 598 1001 1657 1586 1566 1998 1778 1813 1569 1353 1103 1313 1611 1386 1772 2240 1859 1597 1653 1610 1126 463 108 82 18 0 110 7 27 52 2 0 0 2 28 8 11 2
12 184 331 461 416 796 1181 1479 1967 2017 2216 1767 2098 1823 1652 1534 1242 1022 1667 1828 1692 1492 1909 1461 1369 974 567 69 46 60 15 91 86 9 10 0 0 0 1 3 0 10 10
63 57 343 555 538 861 1050 1778 1987 2101 2332 2158 1634 2233 1804 1630 1275 1027 1726 1725 1447 1899 1769 1637 1246 801 339 134 49 61 111 56 59 0 1 21 0 0 0 0 0 0 2
82 90 353 503 705 760 1272 1749 2161 2087 2526 2478 2457 1752 2223 1497 1174 1733 1735 1511 1405 1611 1415 1214 894 688 379 372 301 102 108 75 6 74 0 0 0 0 0 2 1 0 1
153 182 190 461 708 775 1504 1543 2482 2521 2607 2796 2684 2294 2059 2032 1754 1867 2087 1671 1459 1708 1292 1303 1124 875 718 280 244 135 16 269 94 0 0 2 0 0 1 23 11 0 0
49 186 233 462 717 851 1296 1638 2216 2696 2893 2567 2966 2650 2392 1820 1781 1942 1923 2262 1219 1280 1222 1362 1421 1245 799 315 231 132 117 44 89 63 31 0 0 0 39 23 13 8 8
73 255 250 423 823 986 1254 1604 2169 2750 2977 3073 2949 2832 2704 2297 1945 2330 1980 1980 1595 1411 1146 1050 1717 1291 827 349 374 104 37 180 5 1 0 54 62 34 21 90 59 28 41
46 222 364 484 978 1144 1124 1575 2623 2755 3040 3196 3122 3055 3011 2816 2433 2034 2308 2154 1691 1570 1362 1331 1043 1453 1037 604 436 213 124 39 116 20 16 7 0 102 87 169 154 175 187
436 534 480 843 1115 1190 1161 1578 2194 3041 3236 3359 3255 3236 3010 3122 2989 2412 2729 2799 1867 1780 1328 1357 1270 1106 1003 758 490 334 148 179 105 130 92 60 59 92 205 174 231 209 151
244 638 692 1001 1108 1358 1320 1312 1917 2793 3248 3499 3376 3161 3091 3086 3170 3022 2379 2980 2851 2264 1721 1373 1382 1249 1044 841 570 497 296 143 231 160 265 243 70 109 345 227 153 176 176
463 713 798 730 1197 1353 1421 1450 1650 1991 2940 3228 3330 3128 3097 3103 3168 3129 3134 2454 2867 2707 2476 2144 1789 1475 1237 984 601 458 336 239 312 202 327 266 345 342 286 217 257 210 171
887 672 995 768 826 1144 1366 1498 1632 1934 2288 2962 3132 3003 3029 3072 3182 3248 3221 3255 2657 2817 2619 2315 2019 1774 1530 1237 716 472 397 430 440 354 455 218 519 494 411 386 301 284 303
601 715 854 1507 848 957 1153 1368 1587 1705 2100 2571 2952 2977 2845 3077 3052 3193 3121 3201 3235 3065 2971 2762 2432 2188 2036 1671 1148 416 415 394 362 384 465 393 388 326 344 303 146 131 226
27 351 700 1085 1924 1121 1110 1296 1446 1743 1941 2109 2709 2839 2991 2889 3184 3157 3172 3257 3273 3288 3217 3116 2750 2521 2210 1746 1091 572 357 507 466 496 537 504 265 208 259 289 298 296 295
15 0 361 1030 1480 1818 1333 1181 1301 1565 1736 1809 2075 2624 2769 3143 3305 3329 3291 3339 3331 3303 3369 2876 2770 2670 2362 1759 915 561 354 335 421 303 307 271 97 174 358 293 271 119 100
0 0 47 39 1577 1927 2005 1683 1378 1322 1390 1500 1895 2407 2598 3052 3551 3455 3431 3375 3245 2592 2402 2883 2734 2212 1583 1195 513 510 397 403 295 79 122 125 195 464 376 229 171 76 117
526 69 247 626 1659 2020 2156 2021 1755 1522 1637 1402 2782 3153 3625 3789 3677 3524 3440 3012 2753 2597 2464 2576 1741 1481 1359 862 589 449 302 408 201 133 82 111 224 211 218 174 59 57 52
882 3042 1358 1945 2357 2445 2479 2347 1895 1867 3109 3429 4164 4248 4276 4036 3763 3480 2977 2898 2609 2430 1990 1873 1634 1422 922 945 435 459 461 576 473 216 287 206 365 367 128 74 31 24 31
3051 3236 3632 3892 3769 3031 3015 3591 3909 3786 3816 4293 4288 4208 4146 4227 4085 2857 2419 2379 1668 1640 1524 1462 1604 833 849 698 670 643 692 621 346 251 175 151 124 61 19 25 52 3 0
3031 3069 3159 3418 3652 3671 3754 3866 3866 3873 4021 4008 4125 4076 3977 3611 3130 2520 1632 1527 1337 1192 1097 1029 771 873 804 733 719 646 645 338 217 136 158 125 90 11 0 0 0 0 0
2916 3028 3172 3612 3576 3493 3542 3550 3645 3733 3830 3798 3485 3365 3276 3156 2630 1462 1392 1296 1226 1269 1127 1262 1012 620 782 812 674 560 506 343 258 235 121 23 0 0 0 0 0 3 7
1551 3086 3361 3368 3475 3654 3602 3438 3338 3334 3265 2678 2807 2841 2721 1876 1726 1483 1365 1177 1009 939 976 892 680 594 754 812 642 413 262 114 31 60 50 64 29 9 38 81 59 17 15

GFSMW_con_mucape_012.txt.gz
CAPE
679 613 557 452 493 791 1127 1203 1219 892 1023 1198 1170 1065 1097 997 901 1355 848 1302 1325 1215 920 964 1131 1098 1039 665 255 89 0 0 0 0 0 21 27 9 0 0 8 170 314
417 478 509 394 516 768 1069 1214 1173 905 938 958 947 1138 1152 1177 1104 1391 1065 975 903 820 1076 984 1069 1231 1014 693 347 78 0 0 0 0 0 5 34 20 9 7 9 1 80
351 390 475 399 490 710 872 911 1129 1114 1104 1119 1077 1225 1134 1110 1332 1232 1045 1138 1122 1007 1249 1265 1051 928 954 888 245 110 0 0 5 0 0 0 1 16 8 5 9 0 0
93 175 409 421 442 621 725 754 987 1370 1266 1233 1174 1161 1053 1079 1282 1131 1221 1399 1323 1279 1406 898 923 759 689 535 290 2 0 0 0 69 0 0 0 5 1 4 1 0 0
61 31 263 377 417 484 712 679 672 1539 1503 1424 1312 1221 1217 988 1008 1041 1196 1302 1606 1514 1292 1110 869 875 674 324 54 29 0 44 5 50 0 0 0 0 3 5 1 0 0
50 6 93 230 338 401 696 777 661 825 1551 1575 1497 1476 1384 1163 978 963 1058 1333 1533 1589 1461 1127 1142 1171 677 280 7 0 0 57 78 4 24 7 0 0 0 0 0 0 0
89 9 12 105 173 305 589 932 874 762 1137 1635 1603 1504 1380 1324 1046 903 1047 1406 1487 1617 1505 1337 1419 1284 807 510 69 7 1 18 45 0 0 0 0 0 0 0 0 0 0
94 41 22 86 100 246 610 941 1092 981 1198 1315 1502 1490 1434 1222 1096 961 1099 1199 1399 1630 1388 1407 1124 965 800 521 3 5 13 36 11 24 0 0 0 0 0 0 0 0 0
116 67 50 78 160 257 582 910 1342 1240 1374 1573 1274 1502 1578 1360 1263 1227 1315 1261 1325 1320 1144 1234 1364 1132 813 314 73 13 15 57 16 13 24 0 0 0 8 7 8 2 0
200 101 31 126 279 256 633 1049 1420 1454 1656 1821 1651 1450 1494 1668 1556 1390 1413 1652 1462 1285 1250 1432 1523 1139 695 417 269 67 64 35 110 8 0 0 0 0 2 1 29 25 2
225 141 99 125 310 391 810 1203 1449 1449 1754 1976 1894 1880 1672 1448 1802 1760 1538 1570 1497 1288 1285 1302 1198 831 643 628 480 127 58 4 62 61 11 1 0 3 2 3 13 33 17
207 153 158 125 291 572 953 1157 1668 1676 1772 2108 2111 2034 2070 1873 1607 1564 1575 1661 1665 1639 1385 1423 1180 881 783 815 601 236 54 32 3 20 48 13 3 39 47 25 72 87 71
236 186 86 241 345 619 828 1282 1640 1950 2093 2182 2228 2415 2285 2214 1986 1735 1639 1645 1572 1495 1555 1487 1340 1282 968 953 733 398 81 62 23 63 11 0 6 10 9 32 43 99 134
71 9 109 167 470 703 864 1334 1533 2163 2240 2454 2428 2465 2512 2382 2318 1988 1763 1670 1771 1558 1650 1616 1540 1364 1307 1283 1151 1021 684 254 119 0 47 2 4 17 14 81 132 154 153
2 18 96 283 596 874 924 1256 1708 1989 2331 2497 2677 2626 2629 2605 2586 2386 2111 1860 2093 1832 1874 1700 1510 1496 1441 1370 1264 1200 949 712 204 107 134 147 85 205 156 73 173 136 129
17 127 169 383 642 939 1013 1137 1580 2257 2372 2620 2705 2735 2806 2764 2751 2778 2630 2265 2188 2489 2408 2188 1752 1542 1554 1511 1505 1391 1123 823 482 181 95 210 207 216 183 156 203 125 170
152 312 418 564 668 966 1094 1107 1552 2117 2564 2713 2881 2915 2819 2823 2799 2833 2878 2822 2571 2370 2618 2792 2773 2563 2168 2094 1783 1427 1328 1345 657 211 96 145 200 237 206 209 173 238 166
23 474 568 597 788 999 1186 1263 1372 1866 2490 2635 2864 3061 2979 2837 2797 2842 2895 2898 2958 2880 2750 2526 2683 2746 1984 1702 1733 1948 1732 1762 435 288 183 339 343 338 124 81 85 124 87
0 264 682 797 828 940 1163 1349 1415 1651 1948 2383 2629 2854 2918 2756 2820 2818 2929 2931 2968 3029 3106 3052 2797 2284 828 1954 2535 1997 1355 882 318 199 287 344 395 315 192 116 89 95 135
0 0 114 486 1206 780 936 1166 1376 1591 1744 1990 2324 2692 2782 2703 2696 2843 2860 2951 2995 3049 3126 3160 2668 726 757 2411 2139 1028 482 306 272 318 430 543 386 243 110 63 45 32 82
42 0 0 14 367 1278 992 901 1060 1314 1609 1864 2063 2284 2690 2729 2715 2873 2948 3003 3064 3151 3170 3027 2690 1358 2488 2249 1210 472 203 74 62 186 263 101 85 87 78 161 151 136 94
505 1580 256 0 0 608 1257 1069 917 1044 1370 1595 1817 1895 2441 2655 2836 2996 3045 3076 3052 3097 2856 2607 2320 2556 1742 1267 576 371 215 206 146 533 216 42 77 94 129 79 47 12 3
2006 2389 2266 1012 2197 932 1338 1266 1274 1193 1171 1345 1576 1996 2468 2753 2926 2994 3155 3077 3039 2671 2593 2542 2403 1608 1285 679 614 354 286 253 459 338 68 115 144 62 53 33 31 9 0
2816 2920 2950 3016 2808 2447 1779 1449 1325 1384 1571 2567 3021 2799 2611 2648 3025 3128 3029 2638 2681 2442 2154 1992 1487 1078 845 583 414 361 349 504 535 341 187 118 42 14 0 0 0 0 0
2347 2453 2409 2669 2886 2886 3166 3045 2839 3201 3069 2730 2566 2566 2463 2859 3216 3222 2502 2192 1825 1723 1549 1140 950 849 649 577 543 526 548 623 454 267 148 64 40 0 0 0 0 0 0
1585 1410 1172 1075 924 1309 1913 3572 3427 2980 2582 2440 2607 3093 3391 3357 2890 2207 1172 814 987 902 922 876 703 585 591 630 601 528 356 317 177 98 88 23 0 0 0 0 0 4 11

GFSMW_con_mucape_015.txt.gz
CAPE
592 690 630 501 398 530 572 615 713 860 919 887 1032 1024 1291 1062 773 938 1025 1084 1027 1098 1093 920 881 815 686 879 645 223 0 0 0 0 6 13 16 3 0 20 40 296 470
713 768 699 610 429 485 685 701 696 773 833 878 898 919 1022 937 798 733 1101 932 1045 1139 1235 949 809 949 926 905 463 197 25 0 0 0 0 17 12 8 0 1 20 34 32
714 704 695 670 448 377 743 811 801 796 700 685 738 851 784 765 820 768 1008 1054 1077 1178 1056 787 766 865 1063 931 672 210 66 0 0 0 0 0 1 0 2 0 5 7 11
414 567 694 741 487 351 624 815 879 861 712 590 602 746 754 627 741 861 1004 1269 971 888 875 896 998 954 941 757 759 210 28 0 30 34 0 0 0 0 0 0 1 0 0
291 368 501 565 554 355 569 825 899 896 830 547 653 698 674 609 632 906 1074 1096 1051 993 949 939 1166 760 632 840 647 261 0 0 0 20 0 0 0 27 0 0 0 0 0
243 258 300 442 493 414 496 701 784 858 842 671 759 781 782 720 740 758 961 1110 1057 1233 1231 1189 1096 765 620 539 395 153 0 0 0 0 10 0 0 0 0 0 0 0 0
102 128 169 230 392 425 576 623 596 853 929 903 879 893 950 831 815 781 893 902 991 1217 1377 1330 1154 1000 929 865 252 122 0 0 11 0 0 0 0 0 0 0 0 0 0
13 28 69 89 238 359 491 561 595 679 1053 1123 1062 998 1014 941 894 1017 881 803 978 1181 1312 1421 1250 1163 1131 875 382 213 0 0 19 3 0 0 0 0 0 0 0 0 0
1 29 69 65 89 201 303 576 582 551 907 1165 1166 1093 1070 1059 1060 1085 1032 900 874 1230 1372 1308 1421 1347 1293 930 605 247 8 5 0 3 1 0 0 0 0 0 0 0 0
2 15 74 91 70 103 194 421 640 601 564 919 1143 1153 1114 1135 1117 1056 1072 946 873 1059 1260 1293 1459 1351 1230 877 683 233 3 0 2 0 0 0 0 0 0 0 0 0 0
0 11 66 130 122 67 86 334 671 701 655 732 944 1029 1162 1140 1119 1131 1067 1026 1076 1148 1105 1269 1527 1141 1157 1101 822 294 136 0 0 6 0 0 0 0 0 1 0 0 0
0 5 63 142 130 75 86 328 605 827 769 861 1026 995 994 1149 1259 1165 1174 1098 1239 1373 1451 1376 1274 1123 1140 1330 922 518 486 133 0 3 18 1 0 0 0 0 0 0 0
0 0 0 56 179 92 128 348 670 900 931 1053 1180 1230 1217 1150 1279 1353 1261 1208 1320 1420 1310 1320 1237 1158 1285 1304 1008 750 687 565 153 11 0 21 26 8 0 25 20 0 14
1 2 0 111 196 127 206 459 782 976 1049 1220 1391 1448 1462 1506 1295 1308 1370 1380 1452 1554 1527 1327 1357 1443 1389 1240 1059 986 908 921 703 339 139 0 2 3 0 4 0 0 8
1 38 83 85 265 160 284 582 800 1180 1178 1294 1552 1617 1620 1694 1680 1554 1425 1354 1392 1437 1448 1502 1459 1607 1636 1430 1325 1247 1221 1037 932 779 446 96 22 35 8 11 53 16 57
0 95 186 251 153 130 327 544 1011 1243 1460 1521 1640 1753 1868 1947 1951 1907 1765 1636 1525 1567 1565 1488 1385 1351 1430 1628 1655 1530 1365 1031 943 800 559 252 66 72 111 63 192 37 41
0 0 89 39 57 186 426 581 1090 1225 1768 1768 1866 1948 1946 2133 2178 2119 2047 1929 1804 1695 1646 1602 1472 1443 1562 1680 1564 1539 1353 930 1005 915 1016 688 105 55 161 181 198 95 75
0 0 34 4 127 361 628 721 1043 1398 1755 1976 2005 2168 2230 2194 2297 2358 2298 2174 2042 1960 1865 1792 1681 1584 1655 1754 1729 1922 395 271 742 1095 1155 361 217 15 163 232 154 64 47
0 0 0 92 250 509 791 922 1004 1397 1895 2039 2173 2302 2442 2403 2468 2483 2527 2454 2302 2207 2161 1990 2032 2170 2231 2390 2566 2390 288 1257 1528 1097 755 469 255 47 258 149 21 32 60
0 0 0 272 367 628 977 1082 1099 1410 1959 2240 2306 2464 2607 2551 2534 2577 2522 2567 2574 2371 2309 2431 2385 2433 2473 2510 2625 967 959 2094 1527 824 418 355 146 248 395 193 37 29 24
210 98 0 322 647 802 1084 1214 1228 1252 1645 2095 2401 2453 2645 2734 2635 2555 2542 2642 2673 2641 2479 2605 2708 2837 2874 2855 2386 836 2063 1605 868 358 261 201 282 405 184 90 119 39 6
1483 1980 2033 1726 1047 478 789 1110 1263 1371 1431 1691 1902 2326 2480 2760 2705 2604 2582 2661 2680 2888 2765 2782 2845 2972 3148 2835 1449 2203 1611 812 340 115 83 129 152 8 1 0 0 52 9
1949 1842 1888 1658 1708 2353 1174 761 949 1268 1445 1530 1645 1820 2217 2547 2626 2593 2614 2687 2792 3026 3561 2850 2895 2703 2658 2207 1746 1072 662 326 153 3 7 200 24 0 0 0 0 0 0
2090 2098 1780 1492 1353 1043 2478 2419 1886 1462 1074 1300 1530 1624 1891 2370 2524 2618 2705 2690 2877 2855 2756 2479 2175 2257 1854 1476 1041 645 401 156 4 85 202 41 0 0 0 0 0 0 0
1535 1718 1958 1669 1408 1365 1022 946 2084 2375 1583 1222 1259 1460 1802 2406 2600 2609 2693 2619 2591 2308 2208 1876 1447 1464 1177 1015 662 578 389 288 174 282 326 104 39 0 0 0 0 0 0
1107 1028 1084 1035 1081 1144 1170 1041 933 754 2538 1782 2123 2137 2118 2259 2389 2609 2603 2650 2268 1535 912 792 351 728 594 742 488 365 360 357 440 513 431 101 19 0 0 0 0 0 0

GFSMW_con_mucape_021.txt.gz
CAPE
633 707 767 738 844 1006 1143 1203 1095 1356 1157 1026 791 750 697 662 1022 1148 1425 1828 1932 2090 2134 1805 1814 1717 1554 1572 1482 868 408 41 141 61 121 152 22 17 123 278 145 103 184
720 722 737 772 792 1002 1154 1394 1467 1741 1481 1096 1203 942 1063 914 1481 1418 1612 1735 1866 2092 2117 2086 1944 1750 1470 1635 1421 922 209 53 82 42 50 13 26 0 0 70 70 145 0
823 801 750 748 825 963 1358 1772 2030 2060 1740 1628 1228 1211 1414 1631 1629 1565 1781 1776 1966 2176 2230 2183 2022 2008 1760 1588 1552 1005 575 124 105 60 33 0 1 34 0 1 5 33 3
920 863 844 840 812 1268 1183 1790 1881 2135 1780 2124 1678 1882 1280 1281 1364 1608 1716 1778 2000 2131 2210 2248 2123 2146 1807 1794 1655 1073 676 179 43 104 41 127 218 1 4 0 0 0 0
984 962 947 976 930 923 984 1185 1806 2021 2139 2223 2191 1816 1883 1328 1361 1410 2132 2379 2146 2096 2027 2222 2213 2198 1939 1903 1758 1073 628 383 64 64 64 27 59 107 37 8 0 0 0
908 1011 1032 990 964 807 745 1081 1711 1884 2040 2089 2161 2348 2318 2046 1513 1548 1487 1560 1602 1680 2027 2075 2307 2307 2054 2044 1793 1255 859 378 118 169 170 18 0 0 76 96 14 0 0
957 994 1116 1103 1219 1307 1228 1156 1652 1834 1936 1956 2059 2221 2284 2470 2368 2041 1494 1669 1451 1467 2198 2214 2253 2128 2140 2039 1727 1262 880 489 201 253 173 216 92 13 0 0 22 28 0
928 1056 1427 1546 1587 1455 1449 1259 1408 1780 1920 1911 1998 2091 2244 1790 1941 2123 1479 1408 1411 1566 1971 2287 2290 2248 2133 1981 1553 1192 898 531 425 345 242 172 190 40 12 4 6 3 8
736 876 1258 1482 1543 1627 1549 1478 1445 1673 1881 1877 1959 2019 2094 2030 1928 2187 2214 1532 2075 1541 1860 2146 2300 2317 2194 2002 1625 1237 936 479 416 289 326 208 151 21 0 0 0 0 0
217 594 995 1229 1321 1294 1632 1470 1464 1677 1819 1897 1929 1867 1929 2010 2058 2182 2211 2130 2058 1880 1725 1982 2208 2316 2219 2020 1735 1435 1055 586 319 176 306 219 108 110 39 0 0 0 2
7 132 566 996 1244 1087 1222 1419 1425 1701 1930 1995 2027 1971 1934 1945 2030 2096 2240 2287 2214 2196 2149 2158 2137 2208 2216 2027 1825 1683 1244 758 588 279 303 323 302 95 59 54 52 50 2
86 77 144 356 687 1218 1099 1288 1348 1494 1759 1929 2093 2076 2119 2103 2089 2135 2211 2342 2374 2153 2644 2559 2228 2236 2277 2083 1837 1756 1347 988 790 642 342 235 124 231 159 50 155 58 78
19 75 51 128 509 821 1170 1180 1165 1257 1343 1794 1945 2113 2201 2245 2209 2209 2286 2374 2404 2412 1954 2515 2629 2220 2170 2109 1874 1921 1732 1259 1087 832 528 409 276 139 35 51 38 27 123
1 65 108 573 581 763 1007 1073 1213 1196 1326 1513 1818 2091 2253 2276 2294 2330 2401 2406 2454 2436 2491 2566 2582 2400 2097 2064 1911 1845 1897 1578 1250 1073 643 406 261 242 197 217 205 152 139
0 0 2 662 913 893 1035 1075 1084 1404 1502 1774 1741 2058 2327 2394 2447 2453 2452 2448 2486 2382 2461 2607 2616 2444 2172 1909 2137 1868 1866 1826 1430 1156 882 717 657 521 275 221 300 290 234
0 0 0 171 446 849 1122 1090 1158 1334 1590 1878 1873 1954 2312 2512 2518 2554 2567 2541 2497 2482 2514 2507 2586 2571 2050 1468 1213 1688 2102 1919 1765 1593 1077 1009 947 900 674 394 169 269 308
0 0 0 81 554 632 1108 1133 1260 1411 1656 1570 2019 2198 2280 2447 2512 2537 2602 2553 2534 2494 2547 2510 2576 2624 2621 1370 1207 1341 2033 1903 1978 1802 1461 1146 1266 1321 1164 794 340 133 0
0 0 0 0 774 337 360 1010 1139 1584 1754 1956 2189 2325 2387 2423 2497 2462 2555 2678 2644 2576 2655 2554 2582 2679 2599 1517 1233 1240 1590 2117 2149 1820 1712 1662 1490 1631 1378 1045 528 188 211
0 0 0 0 333 598 1083 1398 1434 1685 1867 1983 2202 2366 2442 2456 2578 2615 2592 2623 2708 2768 2692 2698 2684 2627 2707 1531 1317 1280 1438 2167 2126 1822 1670 1748 1667 1789 1126 1128 771 748 756
0 0 0 0 29 182 279 1276 1292 1672 2060 2170 2248 2364 2652 2708 2754 2807 2891 2820 2738 2723 2593 2771 2774 2233 2710 1738 1326 1269 1665 2089 1871 1711 1488 1507 1712 1280 933 1057 965 853 703
0 0 10 394 510 658 486 1517 1643 1986 1864 2024 2314 2825 2867 2910 2984 3082 3100 3120 3081 2828 2875 2856 2813 2817 2341 2753 1577 1472 2003 2033 1352 1381 1364 1649 1712 1446 1276 990 1078 631 645
604 396 1133 1439 1310 987 1458 1582 1877 1882 2134 2345 2680 3179 3198 2880 2904 3362 3412 3380 3176 3034 3002 2909 2771 2548 2737 1711 1925 1680 1625 1473 1617 1367 1319 1753 1275 1259 1047 694 422 280 138
690 1563 1479 1017 1093 1472 1890 2047 2042 1885 2159 2500 3096 3273 3306 3489 3488 3539 3519 3481 3333 2906 2803 2507 2337 2120 2068 2149 1759 1795 1834 1732 1541 1555 1592 1486 956 1074 655 187 197 169 63
346 236 219 256 441 523 656 947 1167 2235 2314 2467 2908 3196 3294 3646 3767 3352 3420 3449 3247 2871 2981 2703 2523 2220 2016 1930 1808 1809 2024 1879 1741 1808 927 696 707 440 68 172 66 6 18
552 431 322 399 284 335 285 126 137 218 511 1564 2353 2344 2698 3067 3581 3806 3718 3601 3603 3224 3115 3131 2783 2390 1693 1501 2003 1839 2048 1942 1444 813 408 152 72 69 114 27 18 6 0
380 605 818 792 482 89 91 114 179 153 212 344 426 803 1440 2041 2576 3253 3524 2917 2967 2882 2692 2663 2445 2153 1697 2259 2033 1985 1667 1113 543 41 15 55 19 19 8 20 27 0 0

GFSMW_con_mucape_024.txt.gz
CAPE
910 832 933 989 1054 1213 1563 1645 1651 1893 1901 1626 1448 1055 674 705 625 587 1027 1679 2125 2431 2785 2254 1588 1475 1594 1428 1348 1336 988 168 15 35 32 82 28 15 39 44 29 5 14
1012 960 996 991 894 1225 1549 1873 1807 2099 2229 1739 1697 981 753 556 688 804 1310 1920 2290 2743 2799 2937 2189 1693 1672 1677 1630 1479 561 198 17 54 35 54 40 28 29 21 12 4 3
1149 1054 1011 993 900 1174 1573 1828 2150 2084 2112 2058 1380 1117 936 900 919 1145 1585 1957 2406 2553 2851 2439 2399 2127 1935 2845 2076 1675 1140 301 38 106 94 29 39 42 14 16 13 14 18
1244 1175 1015 962 931 1152 1471 1853 2147 2352 2247 2403 1982 2443 1285 1253 1193 1655 1290 1631 2372 2335 2411 2666 2484 2721 1967 1961 2345 1725 1442 1396 99 30 0 206 394 34 48 31 24 5 9
1264 1319 1203 945 839 1101 1349 1722 2381 3056 3062 2482 2717 1946 2139 1498 1429 1333 2434 3056 2710 2546 2214 2556 2526 2654 2775 2274 2390 2106 2042 1247 431 0 83 125 60 95 39 117 47 29 8
1183 1359 1395 1061 907 1076 1425 1672 2841 3852 3312 2894 2448 3445 3447 2610 1764 2079 1585 1696 1855 2047 2412 2379 2251 2356 2571 2582 2597 2454 2036 1698 812 16 66 28 0 0 6 8 22 29 39
1169 1272 1512 1443 1088 1184 1409 1694 2632 3385 3019 2802 2768 2900 2986 3096 3304 2674 2051 2443 1518 1459 2543 2573 2746 2603 2876 2583 2692 2725 2048 2015 1243 867 8 40 77 11 0 0 0 3 17
1170 1193 1482 1644 1561 1326 1833 1845 2613 3052 2903 2823 3576 3768 3690 2379 2392 2902 2187 2017 1591 1683 1736 2241 2513 2598 2564 2786 2802 2628 2227 1898 1593 958 309 20 98 115 46 3 0 3 6
1120 1273 1270 1556 1746 1793 2305 2678 3055 3436 3036 2552 3487 3820 3675 3483 2524 3390 3203 2314 3012 1802 1926 2085 2561 2540 2654 2761 2866 2599 2447 1946 1791 1186 672 203 37 128 46 19 5 0 1
869 1087 1279 1376 1662 1848 1925 2252 2759 3295 3408 2986 3095 2907 3199 3653 3620 3761 3583 3526 2925 2876 2216 2401 2431 2462 2628 2810 2958 2553 2511 2315 1694 1039 679 549 44 120 67 13 0 0 0
265 722 973 1199 1342 1658 1986 2085 2261 2813 2683 3190 3390 3328 3078 3017 3152 3246 3779 3880 3181 3529 2955 2885 2508 2371 2601 2847 3091 3146 2385 2498 2140 1309 908 831 287 48 29 32 0 0 0
39 96 239 673 1151 1460 1745 2016 2152 2155 2492 2875 3552 3554 3562 3387 3061 3535 3561 3894 3768 3678 3624 3142 2900 2598 2424 3039 2996 3021 2272 2479 2308 1887 1337 1005 434 510 527 116 461 253 107
46 150 121 242 763 1213 1638 1584 1847 1968 1982 2772 2535 2750 3091 3176 3444 3747 3489 3773 3924 3946 2880 3444 3800 3410 2916 3103 2944 3178 2931 2559 2501 2202 1862 1419 735 780 347 272 138 81 58
0 0 31 140 461 1136 2027 2420 1570 1658 1757 1891 2274 3099 3525 3497 3551 3727 3761 3828 3998 4041 3883 3943 4100 3680 3128 2940 2911 2908 3019 2943 2628 2555 2222 1742 1132 1015 669 374 435 179 128
0 0 47 400 966 1112 1816 2448 1913 1976 1845 2559 2154 3165 3581 3817 3829 3836 3937 3869 4042 3965 4086 4048 4112 3946 3046 2451 3426 3443 3007 3324 3165 2996 2558 2157 1340 563 574 392 989 1286 417
0 0 0 57 349 914 1355 1446 2260 1893 2122 2885 2826 3153 3729 3999 3985 4071 4112 4102 4058 4102 4166 3980 4092 4098 3067 1901 1729 2625 3508 3680 3787 3482 2988 2427 1227 807 670 691 590 933 981
0 0 0 0 58 136 857 1315 1720 1815 2554 2907 3275 3509 3859 3969 4129 4059 4184 4147 4154 4156 4213 4167 4155 4254 4129 1960 1581 1655 3086 3583 3553 3739 3204 2651 1980 1045 1094 1007 1020 1006 875
0 0 0 0 0 3 2 927 1388 2597 2791 3275 3401 3628 3560 3827 3815 4179 4179 4206 4134 4016 4130 4131 4180 4251 4113 2602 1743 1484 2679 3523 3536 3122 3093 3158 2809 1908 1403 1406 1246 1161 1054
0 0 0 0 77 0 46 386 1449 1830 2207 3311 3425 3568 3482 3524 3769 4153 4213 4189 4073 4095 4082 4089 4269 4274 4165 2663 2224 1612 2456 2666 3812 3386 3195 3291 3258 2339 1644 1579 1617 1269 1111
0 0 0 0 0 15 70 627 1188 1661 2424 3127 2921 3575 3826 3919 3879 4046 4280 4297 4238 3987 3341 3824 4109 3590 4165 3022 2343 1997 2174 2590 2668 3550 3896 2207 2715 2276 1757 1632 1895 1856 1385
16 15 0 0 41 390 420 619 1310 1792 2263 2410 2453 3307 3898 4107 4100 4291 4390 4181 4078 3638 4119 4088 4134 4306 3767 3995 2571 2134 2716 2548 2544 2301 2638 2919 1883 1791 1648 1497 1726 1801 1302
325 797 6 78 774 1443 1508 1402 2811 2191 2583 2836 2733 3625 4005 3385 3028 4475 4524 4221 4140 4221 4208 4173 3995 3810 4210 2776 2781 2386 1853 2195 2809 2716 2573 2505 1708 1319 1282 1455 1121 754 900
1283 1488 799 1623 1966 2277 2369 2469 2454 2427 2547 2759 3175 3162 3370 3398 3921 4378 4243 3663 4337 3465 3640 3401 3406 3617 3702 3942 2536 2391 2258 1662 2570 2520 2077 1720 1388 1156 1301 1486 820 711 564
891 1103 1580 1601 2071 2834 3096 3317 3097 2920 3072 3267 3406 3425 3596 3582 3511 3290 3419 3453 3379 3552 3362 3347 3567 3401 3272 3414 3130 2390 2092 1954 1706 1965 1737 1407 1104 1237 1234 706 495 337 460
506 998 1128 1196 1295 1265 1139 1061 1198 1538 2956 3161 3181 3408 3402 3520 3571 3936 3400 3350 3883 3198 3595 3515 3326 3591 3420 3148 2652 2216 1973 1871 1623 1578 1617 1486 1261 1230 591 307 83 130 220
1018 1183 1146 1125 865 902 1185 1481 1474 1569 1359 1152 1041 1178 1624 1939 2663 2889 3468 2831 2695 2873 3042 3049 3020 3348 3013 2815 2550 2306 1981 1666 1612 1528 1370 1149 1196 546 159 92 53 57 95

GFSMW_con_mucape_027.txt.gz
CAPE
697 684 775 786 837 1170 1649 2330 2533 3426 2527 1956 1637 1429 998 961 500 559 898 1225 1547 2115 2602 1973 2048 1727 2340 1589 1255 1176 758 45 22 26 40 28 21 35 33 39 14 0 20
882 677 756 771 847 1096 1997 3020 3169 3718 3232 2273 2411 1664 1663 582 550 541 1689 1412 1883 2383 2743 2586 1897 1851 1828 1677 1660 1409 1501 39 0 271 69 87 19 16 27 18 7 7 6
1153 906 811 808 823 1199 2134 2952 3508 3665 3356 3240 2642 2471 1805 1540 803 908 827 1549 1978 2260 2851 2184 2086 2027 2308 2581 2067 1522 1237 793 0 184 182 101 590 36 16 0 18 1 8
1221 1207 904 858 849 1306 1482 2961 3540 3698 3485 3698 2328 2516 1208 826 654 953 934 1509 2475 2165 2350 2449 1932 2914 1956 2955 2365 1578 1849 1404 240 0 19 259 584 797 380 144 16 1 7
1160 1259 1170 881 817 983 1174 2111 3702 3812 3571 3536 3381 2177 1998 782 825 890 2418 2331 3488 2655 2062 3083 2924 2905 2255 3027 2147 2113 2113 1428 1070 0 0 20 0 0 306 56 381 11 10
965 1264 1326 974 790 759 984 1939 3641 4070 4014 3917 3502 3968 2677 2034 1250 1554 1524 1418 1400 2350 3229 2600 3602 3204 3225 2669 2549 2789 2317 2190 1315 267 92 90 74 84 65 32 381 50 206
825 1208 1419 1184 988 1217 1524 2085 3584 4165 4197 4113 3597 3489 3770 3245 4213 3803 1492 1797 1296 1173 2988 3584 3800 2664 3696 2845 3607 3615 2920 2282 1863 1688 29 55 71 53 7 1 6 8 38
796 1151 1404 1455 1453 1493 2021 2284 3354 4154 4257 4066 4068 3850 4159 2668 2298 2899 1785 1554 1263 1324 3007 3842 3557 3435 3392 3159 3760 2811 2499 2958 2008 1565 1431 71 83 108 65 25 17 13 10
613 1135 1348 1564 1805 1567 2275 2657 3347 3991 4148 3889 4147 4220 4072 3798 2812 3075 3540 2602 2878 1622 3193 3551 3592 3485 3566 3817 3944 2464 3348 3149 2719 2290 1847 502 32 65 84 39 18 4 52
512 1029 1262 1548 2000 1569 1980 2636 3175 3902 4030 3846 4014 4042 4203 4227 3912 4062 4191 3164 3371 3768 3496 3207 3314 3455 3732 3924 4201 3067 3456 3724 2565 1716 2607 1782 96 122 82 23 12 0 0
331 935 1261 1418 1742 1770 1674 2103 2863 3658 3994 3889 3921 3903 3963 3977 4178 4005 4245 4148 4237 4479 3894 4220 3691 3721 3817 4065 4275 3806 3485 3751 3568 3003 2842 2248 2084 83 56 48 20 7 0
150 776 1036 1166 1293 1694 1900 2032 2266 2423 3703 3735 4051 3968 4009 3926 4012 4114 4002 4316 4344 4300 4581 4332 4289 4130 3814 4017 4215 3946 2684 3727 3415 2977 2882 2053 1022 1924 1710 171 1502 319 564
56 311 800 965 1114 1326 2170 2021 2511 2221 2244 3341 3507 4100 4056 4042 3877 4092 4127 4230 4362 4408 4203 4368 4539 4418 4009 4011 4278 4243 3966 3769 3675 3400 3277 2546 2247 2252 500 685 499 172 440
32 132 156 187 717 1426 2395 2879 2280 2298 2352 2555 2825 3585 4100 4009 4076 4126 4294 4255 4414 4425 4389 4353 4467 4461 4335 3944 3947 4083 4129 3947 3685 3677 3563 3229 2659 2321 2122 1618 1508 1236 627
0 0 18 180 611 1795 2852 3022 2312 2731 2641 3274 3276 3466 4075 4280 4353 4339 4309 4348 4407 4411 4463 4443 4410 4591 4420 3556 3926 3769 4018 4228 4022 3822 3849 3640 2823 1792 1824 1117 1399 1205 866
0 0 0 0 476 848 2085 2558 3291 2740 2674 3536 3382 3734 4110 4402 4489 4520 4526 4632 4496 4550 4546 4510 4401 4378 4221 2825 2270 3002 3808 4224 4401 4206 4265 3999 2256 1667 1190 756 734 1099 1741
0 0 0 0 47 443 810 1344 2903 3011 3016 3278 3948 3724 4198 4337 4558 4674 4698 4612 4628 4631 4608 4520 4512 4464 4480 2964 2187 2108 3603 4059 4294 4405 4295 3918 2750 2126 1893 1107 540 651 700
0 0 0 0 0 0 0 1042 1052 3411 3665 3845 3718 4127 4063 4403 4575 4672 4674 4719 4655 4594 4621 4616 4654 4573 4422 3465 2648 2067 2867 3701 4243 4197 4263 4300 3535 3063 2671 2278 1373 1122 970
0 0 0 0 49 0 0 0 962 2517 3614 3745 4143 3918 4196 4402 4563 4605 4630 4678 4648 4635 4556 4629 4671 4642 4540 3544 3204 2566 2671 3184 3566 4132 4177 4078 4140 3260 2110 2721 2600 1819 1249
11 10 0 0 0 8 0 0 120 1393 3443 3843 4067 4257 4447 4460 4573 4618 4731 4720 4705 4654 4486 4562 4620 4280 4652 3996 3403 3054 2905 3104 3261 3662 4175 2903 3489 3305 2503 2470 2867 2565 1751
583 258 347 348 84 67 46 978 1129 1539 2618 3011 3685 4483 4609 4724 4678 4693 4812 4855 4804 4512 4685 4583 4602 4683 4501 4576 3709 3269 3336 3099 3109 3263 3443 3769 2571 3175 2693 2345 2783 2395 1999
661 102 352 828 417 230 789 2248 2740 2981 3726 3900 4010 4497 4657 4190 4002 4873 4854 4902 4877 4810 4717 4726 4502 4503 4694 3866 3884 3577 3102 2948 3128 3209 3152 3303 2858 2552 2720 2439 2173 2120 1833
1263 1216 1330 1113 1229 2193 2362 2572 4149 3558 4047 4421 4652 4712 4733 4641 4632 4854 4919 4471 4743 4000 4138 3963 4136 4194 4015 4654 3790 3462 3337 3040 2710 3179 2950 2391 2389 2284 2296 2317 2122 1665 1556
1379 1330 1707 1942 2432 3376 3110 3281 3674 3198 3057 3641 4194 4268 4311 4509 4511 3660 3951 3761 3608 3680 3727 3495 3869 3434 3942 4136 4602 3533 3409 3173 2942 2562 2359 2174 1951 2172 2168 2001 1775 1484 1310
1076 1662 1865 2230 2264 2304 2221 2200 2349 3354 3575 3778 3775 3926 3697 3899 4317 4346 3437 3536 4096 3331 3602 3607 3375 3534 3737 3735 3637 3777 3709 3194 2982 2691 2418 1861 1685 1859 1808 1560 1133 1020 1003
1696 1943 2052 1762 1633 1876 1951 2027 2053 2097 2215 3133 3449 3235 3273 3604 3648 3602 3990 3063 2919 3016 2911 2834 2873 3016 3002 2958 2954 3093 3028 2907 2807 2546 2307 2048 1630 1541 1447 1374 869 769 677

GFSMW_con_mucape_030.txt.gz
CAPE
654 941 799 788 1021 1376 1642 1648 2064 2921 2106 2065 1848 1851 1245 1628 1525 1929 2589 2832 2760 3213 3793 2812 1001 2360 1894 2456 2025 1918 1587 501 264 346 403 294 36 93 145 30 10 48 156
620 893 894 775 851 1298 1843 1904 2155 2920 2597 2211 2144 1803 1933 1637 1385 1536 2606 2480 2444 3022 3200 2882 2237 2397 2357 2597 2673 2448 1720 526 105 960 157 197 181 44 46 64 0 39 20
696 807 925 848 795 1435 2027 2399 2510 3208 2596 2648 2774 2801 2937 2882 1444 1487 2124 2098 2676 2789 3025 2840 3208 2281 2651 2306 2780 2633 2340 1493 321 1102 1233 207 147 365 117 23 13 3 12
936 816 965 936 957 1374 2054 2719 2919 3166 2831 3112 2531 2601 1677 1251 1433 1429 1520 1661 2189 2954 3162 3166 3207 3432 2800 2378 2413 3068 2575 2175 883 191 187 1036 971 552 136 253 97 104 2
1004 946 898 1000 1050 1261 2051 2739 3034 3185 3190 2584 3257 2409 1942 1633 1236 1542 2446 2204 2525 2705 2778 2967 3338 3627 3036 2630 2485 2959 2931 2972 1602 537 431 702 783 790 597 526 386 147 145
1138 1297 1067 1109 1061 1349 1835 2528 3090 3048 3173 3077 2580 3223 2204 1958 1344 1391 1592 2249 2579 2634 3095 3441 3086 3489 2751 3152 2923 3079 3487 2932 2802 1775 1617 581 423 574 580 389 300 169 301
1131 1551 1443 1253 1152 1355 1766 2094 3133 3036 2915 3148 2468 2668 2997 1998 3057 2772 1765 1971 1515 2345 2538 3282 3382 2884 3123 3308 2846 3381 3566 3167 2775 2277 1563 1112 1348 1182 939 524 414 354 180
869 1402 1654 1490 1279 1286 1558 1959 3001 3088 3063 2957 3079 2506 3456 2323 1688 3251 1727 1872 1806 1644 2990 2584 3098 3156 3102 3103 3711 2984 2964 3077 2682 2977 1871 1224 1143 1053 742 692 787 291 129
467 1184 1704 1709 1497 1292 1529 1895 2714 3133 3287 2884 3274 3055 2534 3221 1824 2213 2871 2485 2409 2316 3280 2763 2789 2773 3130 3166 3308 2884 3245 3330 2872 2540 2628 1753 794 1065 936 810 611 573 460
457 1110 1579 1878 1631 1329 1516 1746 2485 3122 3408 3403 3170 3258 2722 2968 2943 2048 2846 2331 2873 2544 3824 3120 3062 3097 3164 3514 3367 3225 3197 3003 3149 2347 2154 1754 420 511 1043 759 648 514 304
588 943 1632 1891 1910 1504 1571 1709 1972 3022 3460 3499 3417 3341 3443 2777 2737 2882 2612 3500 2564 4129 2858 4036 3351 3236 3180 3267 3530 3032 2804 3364 2875 2706 2576 1767 1115 910 849 649 765 611 507
796 886 1334 1817 2105 1843 1646 1802 2064 2646 3305 3699 3697 3477 3495 3648 3254 2546 2862 3135 3921 2935 4060 3603 3444 3431 3123 3209 3183 3222 2415 3046 3125 2774 2675 2067 1353 1531 1582 1620 686 679 803
549 873 1324 1587 1990 2103 1970 1949 2081 2257 3170 3663 3742 3678 3585 3489 3603 3535 2659 3309 3198 3931 3094 4036 3804 3283 3250 3126 3342 3204 3147 2522 3287 3071 2633 2307 1773 1606 858 1088 1399 892 1289
606 1029 1216 1636 1847 2188 2375 2268 2138 2322 2542 3430 3690 3659 3757 3562 3525 3484 3570 2961 3502 3276 3674 3471 3601 3814 3351 3275 3157 3258 3312 3099 2857 3252 3055 2653 1978 1752 1622 1197 732 1369 638
842 1207 1264 1670 1931 2291 2535 2677 2484 2444 2505 2620 3393 3519 3624 3915 3700 3645 3678 3786 3394 3481 3416 3551 3610 3509 3703 3438 3216 3161 3278 3385 3155 3005 3274 3007 2460 1858 1792 1122 1405 590 1512
117 238 494 661 1453 2926 3005 2762 2776 2913 2815 2856 2923 3217 3521 3713 4075 3933 3857 3941 3884 3771 3860 3789 3656 3689 3613 3390 3112 2934 3197 3387 3332 3269 3116 3185 2770 2299 1842 1586 918 1133 660
0 3 99 588 1014 1441 3500 3232 3052 3090 3470 3296 3377 3355 3583 3736 3932 4094 4111 3970 4049 4023 4004 3992 3968 3713 3717 3430 3230 2991 3103 3207 3283 3318 3353 3278 2946 2600 2244 1946 1708 955 819
0 68 0 13 496 162 478 1999 3242 3699 3480 4006 3837 4189 4077 3856 4021 4085 4181 4212 4180 4216 4117 4176 4186 4068 3919 3534 3391 3131 2749 3091 3147 3229 3301 3280 3137 2908 2519 2226 1974 1731 802
14 35 0 0 882 435 687 1139 1448 3423 3518 3292 3752 3689 4328 4192 4157 4236 4245 4299 4357 4288 4317 4257 4301 4294 4144 3774 3517 3333 3032 2681 2946 3250 3330 3345 3318 3131 2694 2396 2154 1967 1726
991 1329 971 858 455 1589 492 1504 1564 2778 3301 3327 3498 3976 3759 4187 4207 4309 4399 4413 4467 4442 4404 4393 4341 4233 4298 4048 3845 3555 3285 2838 2640 2904 3228 3257 3316 3277 3014 2531 2270 2129 1801
1278 1301 1348 1315 2392 2410 1692 2935 2489 2116 3228 3455 3777 4181 4460 4157 4249 4444 4552 4550 4572 4530 4490 4442 4442 4398 4297 4292 4130 3890 3559 3291 2960 2716 2786 2957 3144 3277 3220 2897 2475 2273 2075
1347 982 1414 1474 2031 1850 2288 2773 3552 4227 4239 4593 4149 4479 4705 4231 4280 4578 4752 4632 4558 4545 4496 4534 4467 4443 4476 4228 4154 4021 3902 3565 3407 3201 2785 2759 2875 3023 3115 3029 2814 2507 2288
1896 1679 2169 2780 3437 3167 4420 4355 4951 4848 4729 5226 4998 4712 4951 4628 4407 4710 4640 4584 4624 4557 4543 4493 4434 4519 4404 4384 4200 3998 3898 3804 3671 3358 3203 2819 2662 2782 2854 2839 2819 2682 2410
2031 1510 2116 2816 4430 4845 4804 4775 4964 4386 4626 5171 5377 5159 5109 4847 4702 4555 4590 4536 4459 4452 4428 4257 4309 4216 4120 4178 4155 3748 3903 3875 3693 3560 3339 3101 2847 2331 2588 2601 2615 2551 2311
2463 3102 3361 2996 2888 2878 3368 3540 3488 4160 4356 4562 4849 5083 4746 4748 4802 4663 3992 4532 4386 4025 4159 4086 3915 3725 4007 3665 3332 3187 3445 3581 3614 3645 3479 3217 3119 3010 2411 2171 2257 2335 2376
1526 2364 2724 2215 2400 2309 2241 2574 2555 3146 4330 4902 4560 4356 4096 4431 4137 4403 4407 3799 3230 3189 3101 3074 3149 3102 3017 3035 3001 3038 2907 2859 3094 3212 3105 3130 3065 3089 2787 2421 1986 1714 1965

GFSMW_con_mucape_033.txt.gz
CAPE
387 281 414 301 311 468 224 424 520 423 403 903 1016 712 452 760 789 457 781 1014 1429 1663 1977 1649 1210 1215 716 1221 822 385 399 0 0 17 8 0 9 25 21 70 114 103 72
421 404 258 264 250 536 540 378 836 648 408 854 457 1013 1024 741 701 327 1245 1338 1624 1885 1857 1311 1147 1234 1133 1162 857 970 525 59 0 101 27 4 0 9 1 4 23 29 31
372 412 293 293 361 648 480 735 637 924 578 949 857 940 1085 922 818 473 1022 1592 1576 1892 1545 1546 1382 1492 1315 1373 1171 1263 799 58 4 13 88 5 0 12 12 9 0 13 15
291 389 287 307 441 743 605 707 810 1651 1047 1256 1188 967 717 991 971 446 478 1392 1218 1655 1636 1592 1206 1508 1089 791 1158 1270 839 538 0 0 22 54 91 0 0 0 0 0 0
375 335 350 402 406 800 834 664 964 1702 1361 1379 1323 1348 1146 1150 819 594 599 914 1219 1754 2020 1744 1527 1506 1741 1307 993 1139 1323 1281 451 0 0 0 7 22 39 1 3 0 0
313 321 457 406 365 767 1151 1211 1121 1795 1428 1473 1609 1479 1381 953 953 690 507 1110 1073 1262 1716 2094 1777 1754 1583 1346 987 1314 1550 957 1478 329 187 0 0 0 0 1 4 0 0
169 579 513 421 450 917 1255 1621 1624 1868 1712 1303 1398 1990 1369 1214 824 662 751 1249 1570 1368 1608 2086 1820 2051 1581 1714 1355 1333 2005 1307 1210 1394 83 183 0 32 0 39 15 0 0
657 643 453 558 579 630 1213 1946 1796 1785 2084 1824 1262 1111 2180 1420 847 1455 731 1139 1385 1559 1505 1864 2213 1783 1777 1831 1615 1602 1799 2014 1254 1638 649 61 102 152 0 0 0 0 0
896 552 523 677 702 707 1109 1621 1966 1751 1949 2017 1767 1198 1264 2357 1254 572 1373 1279 1337 1095 1714 1660 2370 2028 1736 1705 2122 1826 1583 2215 1624 1108 1482 546 66 42 115 14 0 0 0
809 832 723 793 791 793 1009 1235 2095 1868 1859 1790 1959 1729 1269 1465 2188 1116 659 1937 979 1274 1221 1788 1679 2139 2070 1916 1782 2412 2293 1848 2114 1655 1332 1255 696 85 74 76 13 0 0
910 1096 896 841 893 880 991 1200 1694 2067 2034 1927 1780 1962 1620 1265 1891 2071 1064 1249 1829 1588 1300 2087 1748 1942 1935 2321 2053 1802 2344 2391 2095 2023 1663 1297 1098 282 52 134 98 20 0
844 1317 1182 1084 985 952 943 1137 1382 2115 2172 2216 1908 2018 2023 1796 1335 2055 2031 639 1799 1716 2492 2447 2152 2252 2023 2048 2459 2173 2138 2235 2363 2173 1927 1682 1333 831 159 601 51 50 27
872 1269 1384 1310 1181 1029 969 979 1261 1865 2229 2379 2433 2157 2187 2305 2005 1587 1681 2337 1115 2196 1730 2676 2572 2391 2327 2395 2237 2397 2484 2228 2212 2332 2172 1908 1598 1289 845 470 608 157 18
718 1125 1348 1483 1385 1166 1069 1033 1065 1460 2230 2452 2594 2672 2509 2505 2548 2225 1801 1485 2264 1927 2829 2046 2536 2617 2454 2290 2404 2350 2359 2447 2038 2397 2525 2196 1982 1650 1433 1005 402 506 352
572 1098 1307 1522 1579 1368 1214 1157 1126 1284 1583 2465 2716 2739 2807 2723 2684 2637 2687 2366 1550 2174 2256 2733 2778 2694 2644 2525 2385 2444 2483 2445 2483 2063 2374 2657 2569 2303 1859 1333 949 315 577
671 918 1174 1499 1649 1656 1433 1305 1247 1371 1503 2183 2598 2864 2903 2868 2808 2832 2682 2875 2819 2167 2445 2753 2390 2661 2825 2878 2633 2523 2539 2552 2532 2573 2242 2492 2700 2673 2471 2089 1562 724 88
176 433 692 1255 1617 1734 1791 1657 1590 1510 1655 1773 2303 2726 2898 2938 2975 2907 2928 2803 2840 2929 2547 2319 2821 2531 2768 2968 3081 2956 2716 2605 2625 2623 2640 2451 2556 2802 2740 2503 2264 1922 1288
106 270 315 572 947 1590 2041 2002 1967 1969 1797 1881 2000 2171 2839 3030 3034 3160 3006 3094 2989 3072 3174 3038 2679 3061 2907 2926 3091 3162 3184 2947 2659 2780 2764 2702 2638 2586 2776 2788 2615 2369 2129
504 531 357 575 296 429 1021 2385 2440 2462 2547 2192 2346 2315 2709 2890 3065 3120 3365 3291 3313 3246 3262 3363 3328 3227 3271 3340 3249 3214 3317 3220 3076 2880 2823 2921 2842 2819 2776 2787 2743 2617 2491
911 707 542 277 972 702 407 2028 2668 2581 2643 2897 3125 3275 2837 3071 3052 3201 3294 3429 3497 3513 3537 3462 3616 3508 3501 3534 3519 3527 3401 3233 3149 3077 3004 2886 2956 3040 2993 2875 2785 2764 2621
1134 658 620 484 556 947 325 365 1195 2278 2792 2627 2562 3184 3606 3510 3616 3378 3403 3584 3667 3732 3732 3849 3772 3809 3768 3740 3812 3830 3797 3562 3302 3096 2925 2852 2815 2996 3187 3152 2876 2631 2397
1491 1293 1184 1430 1054 715 476 808 2006 2211 2296 2686 2861 3098 3334 3289 3652 3850 3846 3904 4002 4017 4021 4010 4017 3982 3966 4036 3975 3935 4001 3827 3457 3433 3248 3373 2999 2818 2791 3075 3276 3144 2947
1780 2152 2360 2383 4001 3514 3410 2813 3308 3468 3086 3764 3213 3274 3479 3918 3476 3867 4257 4182 4154 4144 4164 4136 4128 4106 4053 4037 4100 4090 3988 3993 3971 3787 3579 3428 3233 3082 2950 2753 2813 3096 3232
1321 1569 2034 2690 3040 3607 3334 3203 3410 3456 3819 3190 4562 3956 4244 4296 3890 4220 4188 4440 4386 4243 4135 4101 4069 3969 3883 3846 4037 3945 3897 3964 4008 3987 3909 3778 3641 3522 3327 3082 2870 2704 2742
697 864 1431 1920 2264 2422 2717 3272 3433 3507 3436 3832 4672 4483 4476 4321 4330 4027 4301 4082 4014 4020 3935 3936 3788 3693 3722 3791 3764 3681 3632 3444 3245 3128 3131 3428 3638 3644 3568 3494 3316 3203 2896
78 137 508 1606 1891 1740 1682 1393 1941 2866 3283 3698 3911 4036 4088 4257 4295 4074 3716 3529 4070 4014 3799 3772 3848 3758 3497 3210 3281 2994 2946 2859 2955 2976 2877 2831 2772 2743 2906 2935 2969 2926 2824

GFSMW_con_mucape_036.txt.gz
CAPE
291 281 180 149 92 116 184 69 31 198 486 489 364 245 176 86 324 645 457 494 815 1151 1264 1139 1041 644 547 839 384 114 20 0 3 5 0 6 4 17 44 53 70 51 131
393 325 278 198 160 97 210 133 82 61 440 278 373 194 111 44 176 548 427 325 833 1128 1353 1285 1048 958 672 897 670 678 209 0 0 7 0 0 0 16 19 50 60 52 53
437 379 327 261 178 121 189 217 116 0 187 317 397 616 417 279 292 512 721 480 949 1283 1504 1098 1073 883 881 945 761 804 362 0 0 16 6 1 0 0 5 45 36 50 29
352 363 315 369 318 197 202 196 179 103 129 419 220 426 447 631 562 425 401 798 1054 1298 1429 1188 1194 1091 1249 1043 913 1052 492 172 0 0 37 19 7 0 0 0 0 12 9
368 284 271 247 363 241 269 207 440 287 268 562 295 285 405 695 887 711 509 789 995 1343 1339 1092 1130 932 1167 924 779 1113 719 584 3 0 4 0 0 1 0 0 0 0 0
378 332 293 237 194 211 226 262 686 424 346 652 535 413 363 388 561 835 723 467 909 1065 1390 1200 1211 1009 1240 1029 1007 752 1299 834 861 7 0 0 13 0 10 0 0 0 0
361 377 307 309 265 358 293 358 452 995 702 674 797 687 620 629 617 730 697 527 691 832 1134 1508 1398 1601 1320 1408 1168 938 1283 949 1168 458 154 0 0 4 0 0 16 6 0
364 365 339 340 311 467 483 357 518 817 1026 913 832 881 859 762 679 837 781 485 741 682 739 1453 1782 1782 1551 1314 1054 1052 1155 1475 779 949 522 80 57 81 117 62 23 31 25
270 204 337 356 311 477 680 572 524 627 1136 1025 1095 1177 1077 989 949 961 659 643 727 1013 882 1045 1530 1590 1630 1417 1323 1219 1031 1635 1626 818 1105 510 42 37 109 41 31 0 0
353 329 462 415 346 513 747 862 815 720 1174 1205 1005 1004 1305 1534 1076 999 937 1135 902 982 1280 1156 1536 1616 1715 1656 1410 1540 1299 1420 1694 1656 828 1020 528 73 33 123 45 17 0
468 485 364 456 465 473 733 1256 1196 1065 1325 1499 1433 1148 913 927 1817 1431 1058 717 1124 1383 1072 1407 1348 1697 1673 1772 1547 1517 1775 1557 1551 1836 1702 1019 766 394 111 30 110 86 25
443 626 529 485 541 541 749 1185 1599 1394 1389 1677 1685 1585 1379 987 929 1814 1811 1215 682 1071 1680 1255 1424 1544 1736 1732 1701 1440 1529 2190 2270 1870 1963 1858 1494 1048 390 61 47 136 118
354 585 713 562 620 630 729 1055 1598 1679 1559 1586 1608 1629 1629 1458 1110 1042 1729 1956 1508 980 1392 1694 1532 1514 1630 1747 1890 1698 1636 1610 1947 2164 2017 2024 1871 1621 1336 631 33 165 166
729 783 856 748 711 725 806 921 1147 1846 1729 1720 1710 1568 1696 1743 1538 1242 1055 1714 2030 1595 1064 1671 2055 1971 1844 1753 1713 1959 1922 1791 1785 1837 2003 1980 2054 2000 1779 1454 915 131 317
793 800 899 808 801 865 895 959 1103 1524 1900 1924 1939 1847 1674 1861 1969 1841 1527 1200 1419 1933 1918 1191 1663 2246 2287 2274 2135 1864 1889 2096 2138 2015 2066 2149 2083 2023 2019 1859 1676 1178 709
946 1092 1055 1002 1047 1037 991 972 1062 1355 1878 2032 2076 2106 2139 1957 2060 2188 2187 1925 1557 1346 1735 2000 1923 1822 2238 2373 2430 2377 2237 2016 1997 2049 1980 1929 2196 2331 2406 2458 2409 2308 1916
1055 1307 1298 1203 1260 1207 1141 1062 1022 1159 1797 2058 2125 2288 2303 2449 2342 2306 2362 2399 2294 2049 1747 1464 1951 2051 2133 2372 2515 2544 2484 2401 2270 2134 2075 2084 1947 2101 2216 2330 2512 2569 2475
834 1189 1382 1391 1427 1341 1273 1167 1128 1166 1275 1722 2211 2332 2560 2553 2635 2617 2521 2526 2525 2659 2579 2250 1964 2152 2092 2154 2552 2731 2698 2564 2488 2482 2471 2410 2321 2240 2170 2250 2168 2289 2479
518 962 1311 1430 1620 1672 1622 1473 1368 1375 1325 1402 1570 2373 2554 2836 2811 2764 2786 2732 2761 2663 2660 2732 2574 2343 2181 2493 2452 2632 2838 2863 2892 2870 2813 2782 2734 2690 2621 2522 2403 2330 2230
211 413 722 1054 1231 1442 1866 1868 1892 1764 1656 1625 1705 1747 2438 2692 2847 2887 2879 2946 2869 2863 2799 2745 2839 2868 2797 2753 2828 2874 2811 2710 2727 2760 2891 2973 3001 3041 3037 2942 2858 2769 2631
1225 1578 2004 1322 770 1076 1116 1997 2076 2109 2019 1903 1800 1865 1955 2262 2676 2823 2951 2967 3096 2975 3003 3032 2974 3069 3147 3168 3176 3179 3300 3280 3220 3155 3101 3018 3003 3001 3014 3016 3028 2945 2842
2138 3066 2771 2736 2686 1589 1314 2289 2366 2413 2321 2368 2454 2448 2546 2301 2498 2694 2831 2985 2988 3178 3224 3231 3352 3370 3334 3466 3548 3607 3639 3636 3638 3425 3328 3485 3258 3117 3055 2999 2942 2959 3038
1854 2700 2744 3024 2981 2616 2473 2560 2768 3001 2720 2384 2472 2537 2847 3139 3119 3034 2985 3002 3181 3184 3315 3437 3503 3613 3748 3804 3833 3858 3852 3885 3945 3899 3763 3704 3602 3551 3558 3545 3476 3377 3308
1042 1742 1994 2191 2414 2645 2894 2700 2907 3042 3103 2931 2945 2907 2565 2831 3009 3245 3404 3432 3510 3617 3650 3732 3829 3886 3940 3939 3898 3906 4009 4092 4117 4111 4132 4116 4094 4076 4043 3979 3880 3780 3752
617 683 1629 1545 1782 1738 1795 2057 2183 2574 3160 3040 3755 4158 3558 3296 3275 3470 3681 3864 3881 3887 3937 4008 4002 3936 3796 3626 3662 3691 3710 3683 3591 3456 3500 3133 2921 2893 2793 2744 2797 2882 2971
4 300 677 1159 1456 1482 1327 1099 1316 1623 1799 2752 3328 4037 4048 3843 3697 3768 3637 4086 4134 4181 4154 4038 3842 3685 3488 3428 3413 3506 3286 3005 2854 2831 2843 2816 2796 2799 2772 2628 2485 2654 2492

GFSMW_con_mucape_042.txt.gz
CAPE
19 70 96 95 92 136 31 0 0 0 50 57 0 0 0 65 234 267 376 330 501 968 955 705 446 442 412 446 339 63 0 28 14 27 19 13 1 25 39 37 33 57 101
29 62 94 106 105 85 59 13 0 0 18 0 0 0 40 168 307 461 477 433 542 1006 1068 658 567 453 408 545 333 102 12 0 0 0 0 0 0 1 14 19 22 32 35
39 57 59 85 57 40 35 29 11 0 0 0 0 0 27 230 66 202 441 493 440 740 1152 1119 656 695 564 576 472 255 0 0 0 0 0 0 0 0 0 0 4 32 14
63 49 43 47 58 36 32 34 0 0 0 0 0 26 65 210 136 0 302 364 303 582 917 989 1002 858 722 681 550 399 196 0 0 0 0 0 0 0 0 0 0 1 2
77 74 50 35 99 20 15 37 68 1 0 0 0 15 50 107 42 0 0 319 292 408 933 934 958 809 747 720 832 639 521 114 0 0 0 0 0 0 0 0 0 0 0
89 88 65 35 7 14 3 0 3 89 15 0 0 0 5 33 8 0 0 57 306 385 729 1009 1017 926 920 817 963 865 634 420 160 0 0 0 8 0 0 0 0 0 0
125 113 82 68 44 0 0 0 15 23 41 20 0 0 11 9 15 0 0 0 183 381 550 798 915 1015 929 826 945 943 691 584 527 300 57 0 0 0 0 0 0 0 11
276 163 127 120 90 84 55 0 0 0 12 49 20 0 74 0 0 0 0 0 64 327 519 699 823 878 948 879 851 931 849 922 782 816 697 317 0 0 0 0 0 9 24
283 262 252 214 196 161 180 174 79 42 63 27 36 32 65 95 5 0 10 24 76 261 445 628 927 906 962 948 993 1355 1024 1051 992 829 650 689 525 155 3 0 29 73 72
249 244 224 246 232 240 238 203 265 195 152 136 76 106 115 121 77 39 10 45 125 368 503 570 795 989 1034 1015 1024 1304 1509 1159 984 926 1044 887 632 654 310 49 45 48 65
121 116 130 161 184 158 206 224 231 288 245 220 165 130 168 126 117 120 58 65 120 155 360 583 579 899 1069 1142 1111 1345 1505 1426 1235 1035 1113 1108 1166 988 652 555 280 39 25
95 76 66 108 170 182 180 207 207 244 293 298 279 213 244 266 267 264 183 176 241 259 417 596 582 713 947 1047 1151 1218 1360 1419 1519 1358 1139 1321 1234 1325 1360 1368 901 371 123
95 80 74 56 131 170 175 176 204 236 236 283 290 258 331 430 445 450 353 342 372 400 383 508 706 776 978 1098 1133 1203 1325 1475 1479 1593 1471 1378 1317 1446 1379 1489 1544 1304 947
46 66 77 106 172 216 220 218 258 248 246 397 431 417 482 583 679 682 641 552 569 582 593 610 718 874 1025 1262 1343 1329 1344 1386 1578 1670 1613 1582 1531 1554 1720 1473 1567 1561 1525
2 38 70 122 178 237 270 374 358 308 274 357 612 602 606 636 697 905 1136 868 770 728 699 731 764 849 1028 1141 1461 1595 1560 1520 1484 1539 1685 1771 1685 1525 1532 1705 1632 1290 1359
0 7 88 160 172 211 318 388 578 520 428 405 671 758 773 749 710 633 684 1189 1122 1069 1033 1014 1012 854 966 935 1036 1323 1726 1757 1690 1627 1566 1625 1594 1637 1637 1630 1615 1555 1517
0 0 57 184 188 246 305 373 652 809 765 681 796 993 1069 1116 1050 931 778 779 1011 1252 1125 1054 1030 997 1177 1198 1221 1284 1574 1740 1827 1847 1823 1791 1754 1777 1823 1759 1782 1747 1849
0 0 91 199 199 273 349 343 723 1184 1148 1069 1100 1235 1295 1299 1308 1288 1192 1114 1099 1103 1283 1397 1234 1113 1031 1004 1324 1411 1403 1673 1792 1844 1924 1964 2061 1983 1875 1979 2064 2005 2058
0 15 104 217 228 276 380 425 854 1386 1479 1447 1442 1454 1452 1371 1369 1462 1506 1458 1419 1359 1291 1242 1326 1471 1420 1172 1071 1202 1331 1694 1846 1969 2061 2056 2069 1870 1851 1970 2094 2223 2333
638 14 120 270 363 415 457 575 822 1211 1599 1647 1669 1697 1693 1653 1563 1544 1599 1747 1829 1856 1754 1574 1505 1488 1459 1420 1411 1460 1557 1453 1621 1992 2175 1978 2029 2091 2160 2330 2562 2750 2719
1191 528 572 593 594 592 609 647 814 983 1148 1482 1761 1835 1901 1927 1943 1935 1913 1910 2053 2155 2255 2308 2280 2180 2111 2176 2246 2366 2442 2397 2362 2389 2440 2551 2741 2927 2851 2735 2755 2846 2989
1020 1152 1116 998 908 884 878 879 870 914 969 1229 1610 1885 1995 2128 2201 2225 2322 2404 2364 2405 2478 2510 2562 2576 2654 2543 2587 2643 2725 2741 2781 2849 2917 3068 3190 3021 2895 2871 3001 3214 3438
1672 1662 1432 1428 1432 1410 1438 1588 1940 2000 1309 1301 1390 1483 1926 2157 2374 2493 2512 2553 2623 2684 2681 2714 2745 2790 2776 2744 2762 2854 2966 3049 3158 3197 3305 3435 3500 3609 3768 3807 3840 3840 3948
1705 1657 1815 1892 1901 1845 2001 2218 2505 2217 1828 1816 1797 1826 1998 2051 2238 2426 2641 2771 2732 2740 2871 2938 2933 2922 2957 2997 2976 3079 3180 3278 3370 3458 3604 3629 3706 3780 3813 3893 3955 3752 3459
1764 1609 1533 1511 1644 1895 2059 2178 2425 2586 2536 2768 2812 2275 2287 2315 2347 2340 2346 2446 2656 2776 2874 2913 3060 3113 3153 3199 3183 3394 3516 3670 3767 3785 3769 3781 3727 3661 3724 3792 3192 2735 2972
1123 1174 1118 1102 1107 1107 1161 1276 1310 1406 1705 2424 2785 3362 3096 2479 2372 2424 2423 2552 2591 2645 2817 2903 3010 3118 3261 3508 3757 3862 3805 3798 3709 3743 3733 3753 3495 3163 2931 2676 2075 2318 2210

GFSMW_con_mucape_048.txt.gz
CAPE
62 47 48 42 94 176 425 440 562 744 706 397 183 371 604 683 901 973 1370 1914 1794 1971 2410 1870 1118 1258 795 862 1220 585 952 176 133 74 29 21 41 357 229 145 76 204 142
75 41 56 112 158 321 502 637 665 893 975 273 439 338 553 511 770 1234 1837 2006 1957 2198 2085 1594 1157 1449 1425 819 867 1161 220 111 101 86 51 44 56 68 139 177 158 222 176
138 109 108 164 219 468 620 776 906 943 1039 707 222 556 640 916 1199 1529 1541 1857 2027 2167 2243 1626 1430 1050 1192 976 1255 1352 681 113 222 410 500 40 318 64 90 299 185 346 271
137 189 234 311 268 450 664 826 1088 1101 989 879 796 1619 754 687 496 1046 1049 1642 2084 2062 2227 2307 1777 1503 1895 1309 1268 1243 404 728 137 72 41 315 505 110 317 86 150 288 346
251 238 326 428 354 338 602 857 1161 1594 1695 1298 1435 756 1000 101 304 719 1313 1832 2356 2136 1928 2287 1667 1683 1369 1729 1796 1868 1550 270 224 50 120 310 257 280 216 152 293 242 175
434 338 355 481 524 426 509 751 1638 1795 1564 1265 986 1739 1444 859 521 1118 898 978 1180 1839 2159 2227 2398 1705 1464 2030 1811 1748 2065 1383 666 202 352 326 422 473 379 271 514 413 414
851 577 441 476 629 639 522 555 1409 2193 1792 1137 1295 1128 1517 1801 1513 1331 1053 1410 572 819 1605 2403 2667 2297 2259 2170 2048 2069 2180 2104 1509 1684 167 59 165 321 386 471 376 481 510
892 940 796 543 653 717 653 631 1173 1817 1837 1575 2257 2422 2191 967 978 1494 1062 834 541 546 877 2160 2208 2414 2371 2425 2527 2549 2147 2071 2077 2051 1830 682 588 558 228 274 462 421 679
896 1044 1062 867 690 813 1241 1360 1688 1749 1532 1136 2209 2423 2344 2152 1370 2390 1474 1063 1541 642 866 1173 1930 1920 2205 2440 2495 2037 2485 2298 2400 2424 2416 2109 1006 1121 818 634 533 544 664
905 1044 1107 1086 870 824 882 900 968 1559 1342 1144 1292 1429 1461 2092 1981 1753 2192 1843 1234 1471 948 1358 1414 1604 2092 2312 2612 2125 2365 2612 2476 1934 2115 2525 1224 1281 1335 1170 912 800 811
869 1063 1116 1135 1074 870 862 970 1047 1205 1362 1469 1710 1711 1429 1377 1615 1517 1629 1792 1766 1660 1930 1414 1365 1792 2232 2401 2644 2476 2122 2714 2755 2605 2343 2578 2674 1996 1423 1332 1232 1200 1055
577 887 952 1032 1111 1095 941 953 1026 1083 1236 1862 2306 1683 1770 1762 1350 1712 1629 1883 1967 1939 2036 1862 1740 1707 1867 2348 2690 2608 2041 2510 2636 2691 2695 2678 2323 2769 2751 2047 2328 1991 1964
229 682 725 932 1068 1198 1219 996 991 987 1063 1443 1257 1224 1330 1349 1827 2022 1901 2143 2003 2151 1929 1965 2068 2007 1796 2288 2594 2655 2556 2449 2590 2737 2765 2842 2967 3074 2592 2431 2124 2082 2377
54 171 563 743 1150 1414 2168 2022 1230 994 956 1163 1172 1775 1623 1701 1582 2437 2457 1906 2442 2265 2220 2153 2122 2178 1877 1826 2270 2471 2643 2527 2552 2817 2846 2944 3174 3408 3523 3478 3381 3228 3097
12 149 293 734 1627 2038 2512 2154 1441 1699 1418 2055 1288 1994 2458 2441 2509 2778 2746 2336 2708 2456 2427 2413 2252 2235 1948 1534 2124 2096 2195 2558 2696 2774 3030 3108 2950 2756 2993 3297 4363 4345 3412
0 0 70 329 806 1362 2230 2536 2532 1956 1922 2548 2185 2482 3012 3033 3057 3239 3339 3164 2898 2840 2617 2481 2417 2348 1931 997 912 1204 1818 2223 2658 2889 3018 3155 2638 2522 2351 2263 2159 2089 3646
123 236 130 79 448 941 1765 2157 2664 2259 2377 2795 2727 2952 3216 3288 3357 3383 3586 3478 3420 3005 2869 2606 2773 3171 3090 1494 948 961 1681 1767 2441 3083 2842 2604 2021 2463 2908 2450 2322 2189 2019
357 471 548 657 137 544 857 1489 1699 2769 2813 2997 3027 3188 3404 3253 3539 3631 3702 3858 3273 3453 3294 2894 3398 3600 3312 2066 1619 1108 1936 2324 2535 2769 2890 3409 3320 2891 2496 2865 2834 2926 3107
568 774 862 924 1124 289 723 1500 1444 2019 2626 2992 3226 3308 3405 3333 3362 3484 3638 3428 3243 3312 3209 2980 3532 3733 3773 2129 1896 1684 1993 2185 3004 2849 3112 3563 3633 2840 2398 2801 3047 3087 2996
526 876 1398 1639 1392 1397 525 1044 1532 1896 2736 2909 3154 3460 3571 3572 3592 3673 3728 3798 3347 3204 2877 2995 3378 2876 3425 2700 2098 1729 2202 2474 2150 3332 3928 2278 2189 2531 2337 2831 2780 3063 2803
462 1205 1626 1727 1543 1177 629 2064 2110 2299 2636 2214 2318 3058 3437 3822 3680 4051 4039 3914 3382 3378 3686 3376 3697 3685 3245 3250 2421 2049 2349 2139 2083 2022 1939 2161 1888 1989 1895 1849 2813 3031 3280
813 1682 1224 841 699 562 1774 2847 2827 2782 3047 3111 3070 3566 3839 2883 2856 4149 3936 3781 3737 3843 3935 3691 3391 2969 3289 2457 2608 2365 2096 2014 2470 2403 2227 3333 2917 2649 2594 2605 2724 2840 2822
983 1515 1589 1150 1151 1470 1846 2265 3089 3177 3055 3139 3654 3438 3445 3355 3975 3969 3998 3463 3803 3320 3245 3226 3163 2979 3037 3460 2588 2330 2167 1940 1857 2810 2986 3058 3232 3199 3019 3004 3101 3092 3090
957 1211 1495 1922 2028 1773 1815 2094 2538 3586 3205 3305 3579 3326 3350 3280 3314 3331 3380 3261 3239 3238 3137 3208 3240 3223 3361 3642 3958 3077 2789 2529 2409 2478 2524 2716 2823 3019 3243 3137 3078 3334 3479
939 1056 1046 1226 1533 1687 1793 2267 2655 2698 2984 3164 3240 3366 3382 3293 3390 3290 2923 3181 3667 3055 3314 3323 3460 3571 3703 3823 3742 3941 4049 3322 2642 2781 3084 3132 3092 3212 3158 3078 3213 3461 3610
1109 948 951 1152 948 902 979 1135 1943 2709 2447 2530 2735 2927 2939 3255 3293 3445 2494 2587 2804 2814 2922 2982 3288 3330 3394 3484 3519 3521 3717 3510 3174 3088 3295 3301 3269 3280 3416 3496 3480 3471 3173